カタログに戻る

SKY MUSTER 2

運用中通信GEO
NORAD 41794·PAYLOAD·🇦🇺 Australia

打ち上げ Oct 5, 2016 から Guiana Space Centre

Loading…

TLE

最新Source: Space-Track

元期: Sep 14, 2026, 11:38 UTC

1 41794U 16060B   26257.48517015 -.00000252  00000-0  00000-0 0  9991
2 41794   0.0192 235.5514 0001544 284.3239 153.0595  1.00273230 36419

AllMySatでSKY MUSTER 2をリアルタイム追跡

Download on the App Store